Voltar ao catálogo

SKYSAT C5

AtivoCiênciaSSO
NORAD 41772·PAYLOAD·🇺🇸 United States

Lançado Sep 16, 2016 de Guiana Space Centre

Loading…

Próximas Passagens (próximas 24 horas)

TLE

AtualizadoSource: CelesTrak SupGP

Época: Sep 14, 2026, 20:49 UTC

1 41772C 16058C   26257.86789352  .00003154  00000+0  95593-4 0  2575
2 41772  97.0395 294.4234 0001321  24.8782  57.1741 15.34197082    18

Acompanhe SKYSAT C5 em tempo real com AllMySat

Download on the App Store